Regional Weather Roundup
Issued by NWS

Home | Current Version | Previous Version | Text Only | Print | Product List | Glossary Off
Versions: 1 2 3 4 5 6 7 8 9 10 11 12 13 14 15 16 17 18 19 20 21 22 23 24 25 26 27 28 29 30 31 32 33 34 35 36 37 38 39 40 41 42 43 44 45 46 47 48 49 50

000
ASUS43 KIND 291909
RWRIN

WEATHER ROUNDUP FOR INDIANA
NATIONAL WEATHER SERVICE INDIANAPOLIS IN
300 PM EDT WED MAR 29 2017

NOTE: "FAIR" INDICATES FEW OR NO CLOUDS BELOW 12,000 FEET WITH NO
SIGNIFICANT WEATHER AND/OR OBSTRUCTIONS TO VISIBILITY.

* - STATION DOES NOT REPORT WEATHER SUCH AS PRECIPITATION OR FOG.

+ - STATION NOT QUALITY CONTROLLED BY THE NATIONAL WEATHER SERVICE.
    USE DATA WITH CAUTION...ESPECIALLY DEWPOINT AND RELATIVE
    HUMIDITY OBSERVATIONS.

INZ001>003-010>013-019-020-292000-
NORTHWEST INDIANA

CITY           SKY/WX    TMP DP  RH WIND       PRES   REMARKS
GARY /AIRPORT/ CLOUDY    46  36  66 NE8       30.22F
KNOX *+        MOSUNNY   55  10  16 E15G22    30.19F
LA PORTE +     MOSUNNY   55  36  50 E17       30.20F
MICHIGAN CITY+ CLOUDY    54  34  47 E7        30.20F
MONTICELLO +   MOSUNNY   56  37  47 E12G22    30.15F
RENSSELAER +   MOSUNNY   55  36  47 E16       30.16F
VALPARAISO     MOSUNNY   57  38  48 E15       30.19F

$$

LMZ046-743>745-292000-
SOUTHERN LAKE MICHIGAN

STATION/POSITION TIME  TEMP    WIND        PRES    WAVE
                       AIR SEA DIR/SP/G            HT
                 (UTC) (F)     (DEG/KT/KT) (MB)    (FT)
BURNS HARBOR     1840   41      60/ 11/ 13 1023.0F
MICHIGAN CITY    1840   40      10/ 11/ 12   N/A

$$

INZ004-005-014>016-021>024-292000-
NORTH CENTRAL INDIANA

CITY           SKY/WX    TMP DP  RH WIND       PRES   REMARKS
ELKHART        SUNNY     55  32  41 SE13      30.22F
GOSHEN         PTSUNNY   54  33  45 E13G21    30.22S
LOGANSPORT +   PTSUNNY   55  37  50 E17       30.17F
PERU/GRISSOM   PTSUNNY   56  40  54 E15G25    30.15F
SOUTH BEND     MOSUNNY   56  35  45 E10       30.23F
WARSAW +       PTSUNNY   54  34  47 E15G21    30.21F

$$

INZ006>009-017-018-025>027-292000-
NORTHEAST INDIANA

CITY           SKY/WX    TMP DP  RH WIND       PRES   REMARKS
ANGOLA *+      SUNNY     54  39  58 E15       30.23F
AUBURN +       PTSUNNY   54  36  50 E14G20    30.22F
FORT WAYNE     PTSUNNY   53  37  54 E18G24    30.21F
HUNTINGTON +   MOSUNNY   55  38  53 E9G17     30.20F
KENDALLVILLE + CLOUDY    54  36  50 E10G20    30.22F

$$

INZ028-029-035-036-043>045-051>053-292000-
WEST CENTRAL INDIANA

CITY           SKY/WX    TMP DP  RH WIND       PRES   REMARKS
CRAWFORDSVL +  SUNNY     54  43  65 E15G24    30.11F
GREENCASTLE +  SUNNY     59  45  58 E15G22    30.10F
LAFAYETTE      SUNNY     55  40  56 E21       30.12F
TERRE HAUTE    SUNNY     59  45  59 SE12G21   30.07F

$$

INZ030>032-037>040-046>048-054>057-064-065-292000-
CENTRAL INDIANA

CITY           SKY/WX    TMP DP  RH WIND       PRES   REMARKS
CP ATTERBURY + MOSUNNY   59  45  58 SE9G21    30.12F
COLUMBUS       MOSUNNY   59  48  67 SE10G17   30.12F
FRANKFORT +    SUNNY     57  44  61 E20G26    30.15F
GREENWOOD *+   SUNNY     56  45  66 E13G18    30.14F
INDIANAPOLIS   MOSUNNY   56  42  59 E16       30.12F
-EAGLE CREEK   SUNNY     57  41  55 E15       30.12F
KOKOMO +       PTSUNNY   55  44  66 E18       30.16F
MARION +       SUNNY     53  40  60 E15G22    30.18F
MT COMFORT *+  SUNNY     57  43  58 E14G22    30.14F
SHELBYVILLE    SUNNY     57  43  59 SE15      30.13F
ZIONSVILLE +   SUNNY     55  43  64 E15G23    30.15F

$$

INZ033-034-041-042-049-050-058-059-292000-
EAST CENTRAL INDIANA

CITY           SKY/WX    TMP DP  RH WIND       PRES   REMARKS
MUNCIE         SUNNY     57  43  59 E20G25    30.17F
RICHMOND +     SUNNY     55  41  58 E14       30.16F

$$

INZ060-061-067>069-081>083-085>088-292000-
SOUTHWEST INDIANA

CITY           SKY/WX    TMP DP  RH WIND       PRES   REMARKS
EVANSVILLE     PTSUNNY   67  52  58 SE8       30.04F
HUNTINGBURG *+ MOSUNNY   66  53  63 SE9       30.06S
WASHINGTON +   CLOUDY    58  47  66 CALM      30.08R

$$

INZ062-063-066-070>080-084-089>092-292000-
SOUTH CENTRAL AND SOUTHEAST INDIANA

CITY           SKY/WX    TMP DP  RH WIND       PRES   REMARKS
BEDFORD +      PTSUNNY  N/A N/A N/A E12G21    30.09F
BLOOMINGTON    SUNNY     59  45  59 SE9       30.08F
MADISON *+     PTSUNNY   61  45  55 SE8       30.13F
SEYMOUR +      SUNNY     61  46  59 E10       30.10F

$$





USA.gov is the U.S. government's official web portal to all federal, state and local government web resources and services.